Regional Weather Roundup
Issued by NWS

Home | Current Version | Previous Version | Graphics & Text | Print | Product List | Glossary Off
Versions: 1 2 3 4 5 6 7 8 9 10 11 12 13 14 15 16 17 18 19 20 21 22 23 24 25 26 27 28 29 30 31 32 33 34 35 36 37 38 39 40 41 42 43 44 45 46 47 48 49 50

000
ASUS43 KDMX 271801
RWRIA

WEATHER ROUNDUP FOR IOWA
NATIONAL WEATHER SERVICE DES MOINES IA
100 PM CDT SUN MAY 27 2018

NOTE: "FAIR" INDICATES FEW OR NO CLOUDS BELOW 12,000 FEET WITH NO
SIGNIFICANT WEATHER AND/OR OBSTRUCTIONS TO VISIBILITY.

* - THESE STATIONS ARE NOT NWS STATIONS...THUS NOT UNDER NWS
QUALITY CONTROL.  THEY ALSO DO NOT REPORT WEATHER SUCH
AS PRECIPITATION OR FOG.

IAZ001>003-012>014-020>022-031>034-043>046-271900-
   NORTHWEST IOWA

CITY           SKY/WX    TMP DP  RH WIND       PRES   REMARKS
CARROLL *      SUNNY     99  50  19 VRB5G13   29.85F HX  95
DENISON *      SUNNY     95  59  30 MISG      29.87S HX  94
LE MARS *      SUNNY     99  55  23 SW8G18    29.82S HX  97
ORANGE CITY *  SUNNY     97  55  24 S10G21    29.84S HX  95
SHELDON *      SUNNY     99  50  19 VRB6G14   29.82S HX  95
SIOUX CITY     SUNNY    100  57  23 SW16G26   29.82S HX  99
6HR MIN TEMP:  67; 6HR MAX TEMP: 100;

SPENCER        SUNNY     98  54  22 CALM      29.84S HX  96
6HR MIN TEMP:  66; 6HR MAX TEMP:  98;

STORM LAKE *   SUNNY     97  52  21 SW9       29.85F HX  94
$$

IAZ055>058-069>071-079>083-090>094-271900-
   SOUTHWEST IOWA

CITY           SKY/WX    TMP DP  RH WIND       PRES   REMARKS
ATLANTIC *     CLOUDY    95  54  24 W7G14     29.86F HX  93
AUDUBON *      SUNNY     95  55  26 SW6       29.88S HX  93
CLARINDA *     SUNNY     95  61  31 SW9       29.89F HX  95
COUNCIL BLFS * SUNNY     93  63  36 S7        29.87S HX  94
CRESTON *      SUNNY     95  63  34 W8        29.90S HX  96
HARLAN  *      SUNNY     95  57  28 W12       29.90S HX  94
LAMONI         SUNNY     92  71  50 W8        29.88F HX  98
6HR MIN TEMP:  72; 6HR MAX TEMP:  92;

RED OAK *      SUNNY     95  61  31 S12       29.87S HX  95
SHENANDOAH *   SUNNY     95  57  28 W9        29.87F HX  94
$$

IAZ047>049-059>061-072>074-084-271900-
   CENTRAL IOWA

CITY           SKY/WX    TMP DP  RH WIND       PRES   REMARKS
AMES           CLOUDY    94  66  39 SE5       29.84F HX  97
6HR MIN TEMP:  67; 6HR MAX TEMP:  96;

ANKENY *       CLOUDY    95  66  38 CALM      29.86S HX  98
BOONE *        CLOUDY    97  59  28 SW6G12    29.85S HX  96
CHARITON *     SUNNY     91  70  49 CALM      29.87S HX  97
DES MOINES     CLOUDY    94  69  44 S5        29.85S HX  99
6HR MIN TEMP:  73; 6HR MAX TEMP:  94;

GRINNELL*      PTSUNNY   94  60  32 W6        29.88S HX  93
KNOXVILLE *    CLOUDY    93  70  46 SE7       29.85F HX  99
MARSHALLTOWN   MOSUNNY   95  58  28 CALM      29.85F HX  94
6HR MIN TEMP:  71; 6HR MAX TEMP:  95;

NEWTON *       CLOUDY    97  55  24 VRB7      29.86S HX  95
PELLA *        CLOUDY    93  67  41 CALM      29.87S HX  97
$$

IAZ004>006-015-016-023>025-035-036-271900-
   NORTH CENTRAL IOWA

CITY           SKY/WX    TMP DP  RH WIND       PRES   REMARKS
ALGONA *       CLOUDY    97  54  23 E8G14     29.84F HX  94
CLARION *      SUNNY     97  48  19 CALM      29.85F HX  93
ESTHERVILLE    SUNNY     93  60  33 SE7       29.84F HX  93
6HR MIN TEMP:  65; 6HR MAX TEMP:  94;

FORT DODGE *   SUNNY     96  60  30 CALM      29.85F HX  96
MASON CITY     SUNNY     95  55  26 SE8       29.87F HX  93
6HR MIN TEMP:  68; 6HR MAX TEMP:  97;

FOREST CITY *  FAIR      95  50  21 E3        29.86S HX  92
IOWA FALLS *   FAIR      95  55  26 CALM      29.88S HX  93
$$

IAZ007>011-017>019-026>030-037>042-050>054-066-271900-
   NORTHEAST IOWA

CITY           SKY/WX    TMP DP  RH WIND       PRES   REMARKS
CEDAR RAPIDS   FAIR      92  71  50 VRB3      29.86S HX  98
6HR MIN TEMP:  72; 6HR MAX TEMP:  92;

CHARLES CITY * FAIR      93  52  24 NW7       29.87F HX  90
CLINTON *        N/A     93  72  50 S7        29.87F HX 101
DECORAH *      FAIR      90  61  37 VRB6      29.88S HX  89
DUBUQUE        FAIR      90  72  55 SW6       29.88S HX  97
6HR MIN TEMP:  70; 6HR MAX TEMP:  90;

MONTICELLO *   FAIR      93  64  38 CALM      29.86S HX  95
OELWEIN *      FAIR      93  61  33 N7        29.88S HX  93
WATERLOO       FAIR      94  62  34 MISG      29.85F HX  94
6HR MIN TEMP:  67; 6HR MAX TEMP:  95;

$$

IAZ064-065-067-068-078-271900-
   EAST CENTRAL IOWA

CITY           SKY/WX    TMP DP  RH WIND       PRES   REMARKS
DAVENPORT      FAIR      93  68  43 SW6       29.87F HX  97
6HR MIN TEMP:  71; 6HR MAX TEMP:  93;

IOWA CITY      FAIR      94  70  45 CALM      29.86F HX 100
6HR MIN TEMP:  72; 6HR MAX TEMP:  94;

MUSCATINE *    FAIR      91  73  55 S10       29.85S HX 100
QUAD CITIES    FAIR      95  68  41 W8        29.85F HX  99
6HR MIN TEMP:  71; 6HR MAX TEMP:  95;

$$

IAZ062-063-075>077-085>089-095>099-271900-
   SOUTHEAST IOWA

CITY           SKY/WX    TMP DP  RH WIND       PRES   REMARKS
BURLINGTON     SUNNY     91  74  57 S6        29.86F HX 100
6HR MIN TEMP:  72; 6HR MAX TEMP:  91;

FAIRFIELD *    CLOUDY    93  68  43 SW8       29.87S HX  97
FORT MADISON * SUNNY     93  73  52 S5        29.88S HX 102
KEOKUK *       SUNNY     91  73  55 SE8       29.86F HX 100
OSKALOOSA *    FAIR      94  66  39 SW7       29.87S HX  96
CENTERVILLE *  FAIR      93  73  52 CALM      29.90S HX 102
OTTUMWA        CLOUDY    91  72  53 VRB6      29.87S HX  98
6HR MIN TEMP:  73; 6HR MAX TEMP:  92;

WASHINGTON *   CLOUDY    93  72  49 SW6G14    29.88R HX 100
$$

ABBREVIATIONS USED IN REMARKS
   TC - TEMPERATURES IN CELSIUS
  WCI - WIND CHILL INDEX
   HX - HEAT INDEX
  VSB - VISIBILITY
$$





USA.gov is the U.S. government's official web portal to all federal, state and local government web resources and services.